Galloway, OH

10:26 AM EST on January 24, 2017 (GMT -0500)
Bolton

Weather History for KTZR - March, 2014

Change the Weather History Date:

Thursday, March 27, 2014

  Actual Average Record
Temperature  
Mean Temperature 40 °F -  
Max Temperature 54 °F 55 °F 82 °F (2007)
Min Temperature 25 °F 36 °F 19 °F (2001)
Degree Days  
Heating Degree Days 26    
Moisture  
Dew Point 19 °F    
Average Humidity 51    
Maximum Humidity 65    
Minimum Humidity 32    
Precipitation  
Precipitation 0.00 in - - ()
Sea Level Pressure  
Sea Level Pressure 30.07 in    
Wind  
Wind Speed 8 mph (SSE)    
Max Wind Speed 17 mph    
Max Gust Speed 25 mph    
Visibility 10 miles    
Events Rain , Thunderstorm    
Averages and records for this station are not official NWS values.
T = Trace of Precipitation, MM = Missing Value Source: NWS Daily Summary

Daily Weather History Graph

Daily Weather History Graph

Search for Another Location

Airport or City:

Trip Planner

Search our weather history database for the weather conditions in past years. The results will help you decide how hot, cold, wet, or windy it might be!

Date:

Astronomy

Mar. 27, 2014 Rise Set
Actual Time 7:24 AM EDT 7:51 PM EDT
Civil Twilight 6:57 AM EDT 8:18 PM EDT
Nautical Twilight 6:25 AM EDT 8:50 PM EDT
Astronomical Twilight 5:53 AM EDT 9:23 PM EDT
Moon 5:14 AM EDT (3/27) 4:38 PM EDT (3/27)
Length of Visible Light 13h 21m
Length of Day
12h 27m
Waning Crescent, 13% of the Moon is Illuminated
Mar 27
Waning Crescent
Mar 30
New
Apr 7
First Quarter
Apr 15
Full
Apr 22
Last Quarter

Hourly Weather History & Observations

Time (EDT) Temp. Windchill Dew Point Humidity Pressure Visibility Wind Dir Wind Speed Gust Speed Precip Events Conditions
12:15 AM 26.1 °F 20.5 °F 14.0 °F 60% 30.26 in 10.0 mi SE 4.6 mph - N/A   Clear
12:35 AM 26.1 °F 20.5 °F 14.0 °F 60% 30.26 in 10.0 mi SSE 4.6 mph - N/A   Clear
12:55 AM 25.0 °F 19.3 °F 14.4 °F 64% 30.26 in 10.0 mi SE 4.6 mph - N/A   Clear
1:15 AM 25.2 °F 18.3 °F 14.5 °F 64% 30.25 in 10.0 mi SE 5.8 mph - N/A   Clear
1:35 AM 25.5 °F 17.8 °F 14.9 °F 64% 30.25 in 10.0 mi SSE 6.9 mph - N/A   Scattered Clouds
2:15 AM 26.4 °F 17.3 °F 14.9 °F 62% 30.23 in 10.0 mi SSE 9.2 mph - N/A   Clear
2:35 AM 26.4 °F 18.9 °F 15.3 °F 63% 30.22 in 10.0 mi SSE 6.9 mph - N/A   Clear
2:55 AM 27.0 °F 18.7 °F 14.9 °F 60% 30.21 in 10.0 mi SSE 8.1 mph - N/A   Clear
3:15 AM 26.6 °F 18.2 °F 15.4 °F 63% 30.21 in 10.0 mi SSE 8.1 mph - N/A   Clear
3:35 AM 26.6 °F 18.2 °F 15.6 °F 63% 30.20 in 10.0 mi SSE 8.1 mph - N/A   Clear
4:00 AM 26.2 °F 18.6 °F 15.8 °F 65% 30.20 in 10.0 mi South 6.9 mph - N/A   Clear
4:15 AM 27.0 °F 19.5 °F 15.8 °F 63% 30.19 in 10.0 mi SSE 6.9 mph - N/A   Clear
4:35 AM 27.1 °F 18.2 °F 15.8 °F 62% 30.19 in 10.0 mi SSE 9.2 mph - N/A   Clear
4:55 AM 27.1 °F 19.7 °F 15.8 °F 62% 30.20 in 10.0 mi South 6.9 mph - N/A   Clear
5:15 AM 27.3 °F 19.9 °F 15.4 °F 61% 30.19 in 10.0 mi South 6.9 mph - N/A   Clear
5:35 AM 27.1 °F 17.5 °F 15.3 °F 61% 30.19 in 10.0 mi SSE 10.4 mph - N/A   Clear
5:55 AM 27.1 °F 18.2 °F 16.0 °F 63% 30.19 in 10.0 mi SSE 9.2 mph - N/A   Mostly Cloudy
6:15 AM 28.0 °F 20.8 °F 16.0 °F 61% 30.18 in 10.0 mi SSE 6.9 mph - N/A   Overcast
6:35 AM 28.2 °F 20.2 °F 16.5 °F 62% 30.19 in 10.0 mi SSE 8.1 mph - N/A   Overcast
6:55 AM 28.4 °F 19.7 °F 16.0 °F 60% 30.19 in 10.0 mi SSE 9.2 mph - N/A   Mostly Cloudy
7:15 AM 28.8 °F 20.2 °F 16.5 °F 60% 30.19 in 10.0 mi SSE 9.2 mph - N/A   Mostly Cloudy
7:20 AM 28.4 °F 20.4 °F 15.8 °F 59% 30.19 in 10.0 mi SSE 8.1 mph - N/A   Mostly Cloudy
7:47 AM 28.4 °F 20.4 °F 15.8 °F 59% 30.18 in 10.0 mi SSE 8.1 mph - N/A   Mostly Cloudy
8:47 AM 32.0 °F 23.0 °F 17.6 °F 55% 30.18 in 10.0 mi SSE 11.5 mph - N/A   Overcast
9:55 AM 35.6 °F 26.6 °F 17.6 °F 48% 30.15 in 10.0 mi SSE 13.8 mph - N/A   Overcast
10:47 AM 37.4 °F 28.9 °F 19.4 °F 48% 30.12 in 10.0 mi SSE 13.8 mph - N/A   Overcast
11:50 AM 39.2 °F 30.8 °F 19.4 °F 45% 30.10 in 10.0 mi SSE 15.0 mph 23.0 mph N/A   Overcast
12:50 PM 42.8 °F 35.8 °F 21.2 °F 42% 30.08 in 10.0 mi SSE 13.8 mph - N/A   Overcast
1:50 PM 42.8 °F 36.6 °F 23.0 °F 46% 30.05 in 10.0 mi SSE 11.5 mph - N/A   Overcast
2:50 PM 46.4 °F 39.8 °F 21.2 °F 37% 30.02 in 10.0 mi South 16.1 mph 25.3 mph N/A   Overcast
3:58 PM 46.4 °F 40.7 °F 21.2 °F 37% 29.98 in 10.0 mi SSE 12.7 mph - N/A   Overcast
5:55 PM 51.8 °F - 24.8 °F 35% 29.94 in 10.0 mi SSE 11.5 mph - N/A   Overcast
6:58 PM 51.8 °F - 26.6 °F 38% 29.88 in 10.0 mi SSE 17.3 mph - N/A   Mostly Cloudy
7:35 PM 50.9 °F - 26.6 °F 39% 29.87 in 10.0 mi South 12.7 mph - N/A   Clear
8:15 PM 50.9 °F - 26.4 °F 39% 29.85 in 10.0 mi SSE 12.7 mph - N/A   Overcast
8:55 PM 50.7 °F - 25.9 °F 38% 29.83 in 10.0 mi SSE 13.8 mph 18.4 mph N/A   Overcast
9:15 PM 50.5 °F - 25.5 °F 38% 29.82 in 10.0 mi SSE 15.0 mph 18.4 mph N/A   Overcast
9:35 PM 51.8 °F - 24.8 °F 35% 29.82 in 10.0 mi South 12.7 mph - N/A   Overcast
9:55 PM 52.2 °F - 24.8 °F 35% 29.82 in 10.0 mi SSE 13.8 mph 18.4 mph N/A Thunderstorm Mostly Cloudy
10:15 PM 52.5 °F - 26.8 °F 37% 29.83 in 10.0 mi South 11.5 mph 18.4 mph N/A Rain Light Rain
10:35 PM 52.5 °F - 27.1 °F 38% 29.82 in 10.0 mi South 11.5 mph - N/A Rain Light Rain
11:00 PM 54.1 °F - 25.7 °F 33% 29.82 in 10.0 mi South 9.2 mph - N/A   Overcast
11:15 PM 54.5 °F - 25.2 °F 32% 29.81 in 10.0 mi South 9.2 mph - N/A   Mostly Cloudy
11:35 PM 54.1 °F - 25.0 °F 32% 29.81 in 10.0 mi South 11.5 mph - N/A   Scattered Clouds
11:55 PM 52.9 °F - 25.2 °F 34% 29.81 in 10.0 mi South 10.4 mph - N/A   Scattered Clouds